Location: Kitt Peak
(31.9639°N, 111.5992°W)
Time: 14:16:53
(UTC-07:00)

SRMSAT - Pass Details

Date: 18 December 2025
Orbit: 846 x 863 km, 20.0° (Epoch: 13 January)

Event Time Altitude Azimuth Distance (km) Brightness Sun altitude
Exits shadow 05:54:38 12° 233° (SW) 2,347 ? -17.9°
Maximum altitude 05:58:56 25° 183° (S) 1,654 ? -17.0°
Drops below altitude 10° 06:03:39 10° 130° (SE) 2,467 ? -16.0°
Sets 06:06:39 0° 117° (ESE) 3,406 ? -15.4°
